Regional Weather Roundup
Issued by NWS

Home | Current Version | Previous Version | Text Only | Print | Product List | Glossary Off
Versions: 1 2 3 4 5 6 7 8 9 10 11 12 13 14 15 16 17 18 19 20 21 22 23 24 25 26 27 28 29 30 31 32 33 34 35 36 37 38 39 40 41 42 43 44 45 46 47 48 49 50

000
ASUS45 KSLC 270510
RWRUT

UTAH REGIONAL WEATHER ROUNDUP
NATIONAL WEATHER SERVICE SALT LAKE CITY UT
1000 PM MST MON JAN 26 2015

UTZ001>011-023>025-270600-

NORTHERN UTAH

CITY           SKY/WX    TMP DP  RH WIND       PRES   REMARKS
BRIGHAM CITY   CLEAR     35  32  87 CALM      30.23S
HILL AFB       PTCLDY    38  30  73 SE8       30.21F WCI  32
LOGAN          CLEAR     32  29  88 S5        30.22S WCI  27
OGDEN          CLEAR     33  31  92 S7        30.20F WCI  27
PROVO AIRPORT  PTCLDY    36  30  80 CALM      30.21F
SALT LAKE CITY PTCLDY    34  31  88 E6        30.21F WCI  29
VERNAL         PTCLDY    28  22  78 N6        30.34R WCI  22
WENDOVER       MOCLDY    34  28  80 CALM      30.21S
HEBER CITY     PTCLDY    30  27  86 CALM      30.26S
WEST JORDAN    CLEAR     36  32  87 SW7       30.22F WCI  30

$$

UTZ012>022-026-027-270600-

SOUTHERN/CENTRAL UTAH

CITY           SKY/WX    TMP DP  RH WIND       PRES   REMARKS
BLANDING       MOCLDY    40  24  52 NE10      30.39R WCI  34
BRYCE CANYON   CLEAR     25  22  88 CALM      30.32F
CEDAR CITY     PTCLDY    34  27  75 S3        30.21R
DELTA          PTCLDY    34  32  90 S8        30.21R WCI  28
MILFORD        MOCLDY    33  28  81 NW3       30.20F
MOAB/CYNLANDS  CLEAR     33  26  75 CALM      30.27S
PRICE          PTCLDY    34  23  64 N6        30.29S WCI  29
ST GEORGE      PTCLDY    52  27  37 N3        30.16F
KANAB          MOCLDY    45  25  45 NW13      30.26F

$$

REGIONAL REPORTS     COLORADO/ARIZONA

CITY           SKY/WX    TMP DP  RH WIND       PRES   REMARKS
CRAIG, CO      CLEAR     17  15  92 CALM      30.33S
GRAND JUNCTION CLEAR     31  25  78 E5        30.31R WCI  26
RIFLE          PTCLDY    34  25  69 W5        30.33R WCI  30
MONTROSE       CLEAR     32  23  69 S7        30.35R WCI  26
CORTEZ         CLEAR     29  22  75 E3        30.34S
PAGE, AZ       NOT AVBL
GRAND CANYON   CLOUDY    43  23  45 E3        30.27F
KINGMAN        LGT RAIN  51  39  63 SW8       30.17R
FLAGSTAFF      CLOUDY    38  25  59 CALM      30.30S

$$

REGIONAL REPORTS    NEVADA/IDAHO/WYOMING

CITY           SKY/WX    TMP DP  RH WIND       PRES   REMARKS
LAS VEGAS, NV  LGT RAIN  57  46  66 SW10      30.10S
ELY            PTCLDY    34  24  67 S10       30.21S WCI  26
ELKO           MOCLDY    38  29  70 NE6       30.14R WCI  33
POCATELLO, ID  CLEAR     28  28 100 CALM      30.21R
BURLEY         CLEAR     36  31  82 E9        30.13F WCI  29
EVANSTON, WY   PTCLDY    35  27  72 NE7       30.28F WCI  29
ROCK SPRINGS   CLEAR     34  25  69 S7        30.28F WCI  28
KEMMERER       CLEAR     32  25  74 N12       30.30S WCI  23

$$


USA.gov is the U.S. government's official web portal to all federal, state and local government web resources and services.